Weather History for Laramie, WY

Change the Weather History Date:

Sunday, December 9, 2012

  Actual Average Record
Temperature  
Mean Temperature 5 °F 21 °F  
Max Temperature 12 °F 32 °F 60 °F (1981)
Min Temperature -2 °F 10 °F -26 °F (1972)
Degree Days  
Heating Degree Days 60 44  
Month to date heating degree days 302 388  
Since 1 July heating degree days 2169 2700  
Cooling Degree Days 0 0  
Month to date cooling degree days 0 0  
Year to date cooling degree days 211 67  
Moisture  
Dew Point -2 °F    
Average Humidity 73    
Maximum Humidity 87    
Minimum Humidity 58    
Precipitation  
Precipitation T in 0.02 in 0.09 in (1998)
Month to date precipitation T 0.11  
Year to date precipitation 6.06 10.71  
Sea Level Pressure  
Sea Level Pressure 30.19 in    
Wind  
Wind Speed 10 mph (NW)    
Max Wind Speed 30 mph    
Max Gust Speed 37 mph    
Visibility 10 miles    
Events Snow    
T = Trace of Precipitation, MM = Missing Value Source: NWS Daily Summary

Daily Weather History Graph

Daily Weather History Graph

Search for Another Location

Airport:

Trip Planner

Search our weather history database for the weather conditions in past years. The results will help you decide how hot, cold, wet, or windy it might be!

Date:

Astronomy

Dec. 09, 2012 Rise Set
Actual Time 7:17 AM MST 4:33 PM MST
Civil Twilight 6:46 AM MST 5:04 PM MST
Nautical Twilight 6:11 AM MST 5:39 PM MST
Astronomical Twilight 5:37 AM MST 6:12 PM MST
Moon 2:51 AM MST (12/9) 1:43 PM MST (12/9)
Length of Visible Light 10h 18m
Length of Day
9h 16m
Waning Crescent, 18% of the Moon is Illuminated
Dec 9
Waning Crescent
Dec 13
New
Dec 19
First Quarter
Dec 28
Full
Jan 4
Last Quarter

Hourly Weather History & Observations

Time (MST) Temp. Windchill Dew Point Humidity Pressure Visibility Wind Dir Wind Speed Gust Speed Precip Events Conditions
12:53 AM 7.0 °F -9.1 °F -0.9 °F 70% 30.01 in 10.0 mi WNW 12.7 mph - N/A   Clear
1:53 AM 3.0 °F -14.1 °F -2.9 °F 76% 30.04 in 10.0 mi NW 12.7 mph - N/A   Clear
2:53 AM 5.0 °F -10.8 °F -0.0 °F 80% 30.07 in 10.0 mi NW 11.5 mph - N/A   Clear
3:53 AM 3.9 °F -12.2 °F -0.0 °F 84% 30.11 in 10.0 mi NNW 11.5 mph - N/A   Clear
4:14 AM 6.8 °F -12.9 °F 3.2 °F 85% 29.91 in 8.0 mi North 19.6 mph 25.3 mph 0.00 in Snow Light Snow
4:53 AM 6.1 °F -8.7 °F 1.0 °F 80% 30.14 in 10.0 mi North 10.4 mph - 0.00 in   Overcast
5:19 AM 6.8 °F -8.6 °F 1.4 °F 79% 29.95 in 10.0 mi North 11.5 mph - N/A   Overcast
5:53 AM 3.9 °F -11.3 °F -0.0 °F 84% 30.19 in 10.0 mi NNW 10.4 mph - N/A   Mostly Cloudy
6:53 AM 1.9 °F -12.9 °F -2.0 °F 83% 30.22 in 10.0 mi NW 9.2 mph - N/A   Mostly Cloudy
7:53 AM 1.9 °F - -2.9 °F 80% 30.27 in 10.0 mi Calm Calm - N/A   Overcast
8:53 AM 5.0 °F -6.9 °F -0.0 °F 80% 30.28 in 10.0 mi NNW 6.9 mph - N/A   Partly Cloudy
9:53 AM 8.1 °F -6.2 °F 1.0 °F 73% 30.29 in 10.0 mi NNW 10.4 mph - N/A   Clear
10:53 AM 8.1 °F -7.7 °F 1.9 °F 76% 30.29 in 10.0 mi NW 12.7 mph - N/A   Scattered Clouds
11:53 AM 10.0 °F -3.7 °F -0.0 °F 64% 30.28 in 10.0 mi NNW 10.4 mph - N/A   Partly Cloudy
12:53 PM 10.9 °F -0.8 °F -0.0 °F 61% 30.26 in 10.0 mi North 8.1 mph - N/A   Clear
1:53 PM 10.9 °F -0.8 °F -0.9 °F 59% 30.28 in 10.0 mi NNW 8.1 mph - N/A   Clear
2:53 PM 12.0 °F -2.0 °F -0.0 °F 59% 30.26 in 10.0 mi North 11.5 mph - N/A   Clear
3:53 PM 10.9 °F 2.9 °F -0.9 °F 59% 30.28 in 10.0 mi NNW 4.6 mph - N/A   Clear
4:53 PM 6.1 °F - -2.9 °F 67% 30.30 in 10.0 mi Calm Calm - N/A   Partly Cloudy
5:53 PM 3.9 °F -5.3 °F -4.0 °F 70% 30.32 in 10.0 mi SW 4.6 mph - N/A   Clear
6:53 PM -0.9 °F -15.3 °F -7.1 °F 75% 30.35 in 10.0 mi SW 8.1 mph - N/A   Clear
7:53 PM -2.0 °F -19.6 °F -9.0 °F 72% 30.33 in 10.0 mi SW 11.5 mph - N/A   Clear
8:53 PM 1.0 °F -17.3 °F -6.0 °F 72% 30.25 in 10.0 mi WSW 13.8 mph - N/A   Clear
9:53 PM 5.0 °F -14.2 °F -5.1 °F 63% 30.17 in 10.0 mi SW 17.3 mph - N/A   Clear
10:53 PM 7.0 °F -12.1 °F -2.9 °F 64% 30.12 in 10.0 mi WSW 18.4 mph 21.9 mph N/A   Clear
11:53 PM 10.9 °F -9.6 °F -0.9 °F 59% 30.09 in 10.0 mi West 25.3 mph 36.8 mph N/A   Mostly Cloudy